Weather Service Report


801 
ASUS45 KBOI 261010
RWRID 

IDAHO REGIONAL WEATHER ROUNDUP
NATIONAL WEATHER SERVICE BOISE ID
300 AM MST SUN FEB 26 2017

NOTE: "FAIR" INDICATES FEW OR NO CLOUDS BELOW 12000 FEET
WITH NO SIGNIFICANT WEATHER AND/OR OBSTRUCTIONS TO VISIBILITY

IDZ012-014-261100-
SOUTHWEST IDAHO

  
CITY           SKY/WX    TMP DP  RH WIND       PRES   REMARKS
BOISE          MOCLDY    29  19  66 SE10      29.91F WCI  20          
CALDWELL       MOCLDY    28  22  78 E7        29.92F WCI  21          
MOUNTAIN HOME  MOCLDY    24  21  89 E12       29.93F WCI  13          
$$

IDZ016-017-261100-
SOUTHCENTRAL IDAHO

  
CITY           SKY/WX    TMP DP  RH WIND       PRES   REMARKS
BURLEY         PTCLDY    23  10  57 S12       29.91F WCI  12          
JEROME           N/A    N/A N/A N/A MISG      29.93F                  
TWIN FALLS     PTCLDY    20   7  57 S16       29.91F WCI   6          
$$

IDZ019>023-261100-
SOUTHEAST IDAHO

  
CITY           SKY/WX    TMP DP  RH WIND       PRES   REMARKS
IDAHO FALLS    CLOUDY     8   6  92 SW8       29.90S WCI  -4          
POCATELLO      CLOUDY    15   8  73 SW7       29.92S WCI   5          
REXBURG        CLOUDY    11   7  84 S8        29.87F WCI  -1          
$$

IDZ006-010-011-018-031-032-261100-
CENTRAL IDAHO MOUNTAINS

  
CITY           SKY/WX    TMP DP  RH WIND       PRES   REMARKS
MCCALL         CLOUDY    19  14  81 CALM      29.77F                  
HAILEY         MOCLDY    10   3  72 NW12      29.89F WCI  -4          
STANLEY          N/A      9   3  77 SE5       29.79F WCI   1          
SALMON         CLOUDY    27   9  46 SW9       29.82F WCI  17          
CHALLIS        MOCLDY    15   9  76 N3        29.82F                  
$$

IDZ002-004-006-007-026-261100-
NORTHERN IDAHO

  
CITY           SKY/WX    TMP DP  RH WIND       PRES   REMARKS
LEWISTON       CLOUDY    34  27  75 N3        29.85F                  
LOWELL           N/A     31  29  92 CALM      29.91F                  
COEUR D'ALENE  FLURRIES  28  26  92 S7        29.78F WCI  21          
MULLAN PASS    SNOW      15  13  91 VRB6      29.60F VSB 1/2 WCI   6  
$$
  

Return to Home page


Western Regional Climate Center, wrcc@dri.edu